{"data":{"norad_id":62849,"epoch":"2026-05-25T01:20:15.522144Z","epoch_age_seconds":66322,"freshness":"FRESH","line1":"1 62849U 25019W   26145.05573521  .00016122  00000+0  59368-3 0  9997","line2":"2 62849  43.0007  17.4004 0001292 268.5557  91.5147 15.27603046 73936","mean_motion":15.27603046,"eccentricity":0.0001292,"inclination_deg":43.0007,"raan_deg":17.4004,"arg_perigee_deg":268.5557,"mean_anomaly_deg":91.5147,"bstar":0.00059368,"rev_number":7393,"period_min":94.265326569662,"perigee_km":482.09363256458,"apogee_km":483.86654522035,"semimajor_km":6861.1170888925,"source":"CELESTRAK","updated_at":"2026-05-25T13:38:19.782565Z"}}